User: anonymous   Login
Location: Unspecified
(0.0000°N, 0.0000°E)
Time: 00:19:37
(UTC+00:00)
Language:

USA 264 - Orbit

View from above orbital plane
View from above orbital plane
View from above satellite
View from above satellite

Ground track
Ground track

The orbit data is extracted from the following two-line orbital elements,

1 40964U 15058A   17085.86597122 0.00000000  00000-0  00000-0 0    06
2 40964  63.4377  10.2503 0081000 176.2416 183.7584 13.40727928    01
Epoch (UTC): 26 March 2017 20:46:59
Eccentricity: 0.0081000
inclination: 63.4377°
perigee height: 1046 km
apogee height: 1167 km
right ascension of ascending node: 10.2503°
argument of perigee: 176.2416°
revolutions per day: 13.40727928
mean anomaly at epoch: 183.7584°
orbit number at epoch: 0

The dashed part of the orbit path shows where the satellite is in the earth's shadow,  

DLR